| time (UTC) | temp C | wind direction | speed KPH | gust KPH | rain 1hr cm | rain 24hr cm | rain mn cm | humidity % | barometer mb |
| 20260502163054 | 22 | 102 | 4.8 | 12.9 | 0.00 | 0.00 | 0.00 | 62 | 1012.7 |
| 20260502161552 | 23 | 5 | 1.6 | 9.7 | 0.00 | 0.00 | 0.00 | 59 | 1012.5 |
| 20260502151541 | 23 | 32 | 3.2 | 8.0 | 0.00 | 0.00 | 0.00 | 55 | 1013.0 |
| 20260502123029 | 26 | 156 | 11.3 | 22.5 | 0.00 | 0.00 | 0.00 | 39 | 1014.5 |
| 20260502121521 | 26 | 144 | 8.0 | 20.9 | 0.00 | 0.00 | 0.00 | 38 | 1014.6 |
| 20260502114516 | 26 | 129 | 6.4 | 16.1 | 0.00 | 0.00 | 0.00 | 39 | 1015.0 |
| 20260502113012 | 25 | 94 | 4.8 | 16.1 | 0.00 | 0.00 | 0.00 | 40 | 1015.4 |
| 20260502111517 | 25 | 30 | 4.8 | 17.7 | 0.00 | 0.00 | 0.00 | 41 | 1015.6 |
| 20260502110012 | 24 | 91 | 6.4 | 17.7 | 0.00 | 0.00 | 0.00 | 40 | 1015.8 |
| 20260502104505 | 25 | 48 | 3.2 | 14.5 | 0.00 | 0.00 | 0.00 | 39 | 1016.0 |
| 20260502103003 | 23 | 80 | 3.2 | 12.9 | 0.00 | 0.00 | 0.00 | 40 | 1016.2 |
| 20260502101501 | 23 | 59 | 3.2 | 8.0 | 0.00 | 0.00 | 0.00 | 41 | 1016.5 |
| 20260502071524 | 16 | 171 | 6.4 | 12.9 | 0.00 | 0.00 | 0.00 | 52 | 1017.5 |
| 20260502070022 | 16 | 182 | 6.4 | 11.3 | 0.00 | 0.00 | 0.00 | 52 | 1017.5 |
| 20260502064521 | 16 | 186 | 6.4 | 12.9 | 0.00 | 0.00 | 0.00 | 51 | 1017.5 |
| 20260502063026 | 16 | 171 | 6.4 | 9.7 | 0.00 | 0.00 | 0.00 | 52 | 1017.4 |
| 20260502061514 | 15 | 188 | 6.4 | 9.7 | 0.00 | 0.00 | 0.00 | 54 | 1017.5 |
| 20260502060011 | 14 | 188 | 3.2 | 6.4 | 0.00 | 0.00 | 0.00 | 56 | 1017.6 |
| 20260502054509 | 13 | 188 | 3.2 | 8.0 | 0.00 | 0.00 | 0.00 | 60 | 1017.6 |
| 20260502053003 | 12 | 188 | 4.8 | 9.7 | 0.00 | 0.00 | 0.00 | 62 | 1017.6 |
| 20260502051503 | 12 | 189 | 3.2 | 9.7 | 0.00 | 0.00 | 0.00 | 62 | 1017.6 |
| 20260502050058 | 11 | 180 | 3.2 | 6.4 | 0.00 | 0.00 | 0.00 | 61 | 1017.4 |
| 20260502044555 | 11 | 180 | 4.8 | 8.0 | 0.00 | 0.00 | 0.00 | 61 | 1017.4 |
| 20260502043055 | 11 | 180 | 3.2 | 6.4 | 0.00 | 0.00 | 0.00 | 62 | 1017.4 |
| 20260502041604 | 11 | 180 | 3.2 | 6.4 | 0.00 | 0.00 | 0.00 | 61 | 1017.3 |
| 20260502040046 | 11 | 180 | 3.2 | 8.0 | 0.00 | 0.00 | 0.00 | 61 | 1017.6 |
| 20260502034543 | 11 | 180 | 4.8 | 6.4 | 0.00 | 0.00 | 0.00 | 61 | 1017.7 |
| 20260502033050 | 11 | 180 | 4.8 | 11.3 | 0.00 | 0.00 | 0.00 | 61 | 1017.8 |
| 20260502031539 | 11 | 184 | 1.6 | 6.4 | 0.00 | 0.00 | 0.00 | 61 | 1017.8 |
| 20260502030038 | 11 | 190 | 3.2 | 6.4 | 0.00 | 0.00 | 0.00 | 61 | 1017.9 |
| 20260502024538 | 11 | 190 | 4.8 | 9.7 | 0.00 | 0.00 | 0.00 | 62 | 1018.0 |
| 20260502023035 | 11 | 190 | 4.8 | 9.7 | 0.00 | 0.00 | 0.00 | 61 | 1017.9 |
| 20260502021532 | 11 | 172 | 4.8 | 6.4 | 0.00 | 0.00 | 0.00 | 59 | 1018.0 |
| 20260502020030 | 12 | 172 | 3.2 | 8.0 | 0.00 | 0.00 | 0.00 | 58 | 1018.2 |
| 20260502014532 | 12 | 110 | 1.6 | 4.8 | 0.00 | 0.00 | 0.00 | 57 | 1018.2 |
| 20260502013026 | 12 | 110 | 3.2 | 4.8 | 0.00 | 0.00 | 0.00 | 58 | 1018.4 |
| 20260502011524 | 12 | 110 | 3.2 | 4.8 | 0.00 | 0.00 | 0.00 | 57 | 1018.4 |
| 20260502010024 | 12 | 110 | 3.2 | 6.4 | 0.00 | 0.00 | 0.00 | 56 | 1018.5 |
| 20260502004519 | 12 | 110 | 3.2 | 6.4 | 0.00 | 0.00 | 0.00 | 56 | 1018.7 |
| 20260502003016 | 12 | 109 | 4.8 | 6.4 | 0.00 | 0.00 | 0.00 | 55 | 1018.9 |
| 20260502001515 | 13 | 109 | 3.2 | 6.4 | 0.00 | 0.00 | 0.00 | 54 | 1019.0 |
| 20260502000012 | 13 | 109 | 4.8 | 6.4 | 0.00 | 0.00 | 0.00 | 52 | 1019.1 |
| 20260501234510 | 13 | 109 | 3.2 | 6.4 | 0.00 | 0.00 | 0.00 | 51 | 1019.3 |
| 20260501233007 | 14 | 109 | 3.2 | 6.4 | 0.00 | 0.00 | 0.00 | 49 | 1019.3 |
| 20260501231505 | 14 | 109 | 3.2 | 4.8 | 0.00 | 0.00 | 0.00 | 48 | 1019.4 |
| 20260501230004 | 14 | 109 | 3.2 | 6.4 | 0.00 | 0.00 | 0.00 | 48 | 1019.5 |
| 20260501224502 | 14 | 109 | 3.2 | 6.4 | 0.00 | 0.00 | 0.00 | 48 | 1019.5 |
| 20260501223002 | 15 | 109 | 3.2 | 6.4 | 0.00 | 0.00 | 0.00 | 48 | 1019.5 |
| 20260501221559 | 15 | 109 | 3.2 | 6.4 | 0.00 | 0.00 | 0.00 | 47 | 1019.5 |
| 20260501220100 | 15 | 109 | 3.2 | 6.4 | 0.00 | 0.00 | 0.00 | 46 | 1019.6 |
| 20260501214558 | 15 | 109 | 3.2 | 4.8 | 0.00 | 0.00 | 0.00 | 44 | 1019.5 |
| 20260501213100 | 15 | 109 | 3.2 | 4.8 | 0.00 | 0.00 | 0.00 | 44 | 1019.7 |
| 20260501211556 | 16 | 109 | 3.2 | 6.4 | 0.00 | 0.00 | 0.00 | 43 | 1019.8 |
| 20260501210058 | 16 | 109 | 3.2 | 6.4 | 0.00 | 0.00 | 0.00 | 42 | 1019.7 |
| 20260501204616 | 16 | 109 | 1.6 | 6.4 | 0.00 | 0.00 | 0.00 | 41 | 1019.8 |
| 20260501203054 | 16 | 109 | 3.2 | 6.4 | 0.00 | 0.00 | 0.00 | 40 | 1019.9 |
| 20260501201554 | 17 | 109 | 3.2 | 4.8 | 0.00 | 0.00 | 0.00 | 40 | 1019.8 |
| 20260501200054 | 17 | 109 | 3.2 | 6.4 | 0.00 | 0.00 | 0.00 | 38 | 1019.8 |
| 20260501194555 | 18 | 109 | 1.6 | 4.8 | 0.00 | 0.00 | 0.00 | 38 | 1019.8 |
| 20260501193053 | 18 | 109 | 3.2 | 6.4 | 0.00 | 0.00 | 0.00 | 36 | 1019.8 |
| 20260501191558 | 19 | 109 | 1.6 | 4.8 | 0.00 | 0.00 | 0.00 | 35 | 1019.8 |
| 20260501190051 | 20 | 109 | 0.0 | 4.8 | 0.00 | 0.00 | 0.00 | 34 | 1019.8 |
| 20260501184551 | 20 | 109 | 1.6 | 6.4 | 0.00 | 0.00 | 0.00 | 34 | 1019.6 |
| 20260501183055 | 20 | 109 | 4.8 | 11.3 | 0.00 | 0.00 | 0.00 | 32 | 1019.6 |
| 20260501181552 | 20 | 90 | 6.4 | 14.5 | 0.00 | 0.00 | 0.00 | 32 | 1019.6 |
| 20260501180058 | 21 | 136 | 6.4 | 16.1 | 0.00 | 0.00 | 0.00 | 30 | 1019.6 |
| 20260501174604 | 21 | 159 | 8.0 | 16.1 | 0.00 | 0.00 | 0.00 | 30 | 1019.6 |
| 20260501173047 | 21 | 131 | 4.8 | 19.3 | 0.00 | 0.00 | 0.00 | 29 | 1019.6 |
| 20260501171546 | 21 | 159 | 12.9 | 24.1 | 0.00 | 0.00 | 0.00 | 28 | 1019.5 |
| 20260501170050 | 22 | 166 | 11.3 | 32.2 | 0.00 | 0.00 | 0.00 | 28 | 1019.6 |
| 20260501164544 | 22 | 126 | 17.7 | 29.0 | 0.00 | 0.00 | 0.00 | 27 | 1019.7 |